This is the latest recevied weather packets stored in our database for station/object KC8JWT. If no packets are shown the sender has not sent any weather packets the latest 10 day(s).
| Time | Temp. | Humidity | Pressure | Rain* | Wind** | Luminosity | Snow |
|---|---|---|---|---|---|---|---|
| 1777549629 | 7.78° C | 99% | 1012.9 hPa | 0 mm | - | 75 W/m² | - |
| 1777549324 | 7.78° C | 99% | 1012.8 hPa | 0 mm | - | 66 W/m² | - |
| 1777549023 | 7.78° C | 99% | 1012.7 hPa | 0 mm | - | 62 W/m² | - |
| 1777548718 | 7.22° C | 99% | 1012.8 hPa | 0 mm | - | 64 W/m² | - |
| 1777548416 | 7.22° C | 99% | 1012.5 hPa | 1.78 mm | - | 47 W/m² | - |
| 1777548112 | 6.67° C | 99% | 1012.6 hPa | 1.78 mm | - | 43 W/m² | - |
| 1777547808 | 6.67° C | 99% | 1012.5 hPa | 0 mm | - | 35 W/m² | - |
| 1777547504 | 6.67° C | 99% | 1012.4 hPa | 0 mm | - | 28 W/m² | - |
| 1777547203 | 6.67° C | 99% | 1012.4 hPa | 0 mm | - | 26 W/m² | - |
| 1777546900 | 6.67° C | 99% | 1012.3 hPa | 0 mm | - | 22 W/m² | - |
| 1777546596 | 6.11° C | 99% | 1012.2 hPa | 0 mm | - | 19 W/m² | - |
| 1777546292 | 6.67° C | 99% | 1012.2 hPa | 0 mm | - | 16 W/m² | - |
| 1777545991 | 6.11° C | 99% | 1012.1 hPa | 0 mm | - | 11 W/m² | - |
| 1777545686 | 6.11° C | 99% | 1012.2 hPa | 0 mm | - | 7 W/m² | - |
| 1777545383 | 6.11° C | 99% | 1012 hPa | 0 mm | - | 4 W/m² | - |
| 1777545081 | 6.67° C | 99% | 1011.9 hPa | 0 mm | - | 3 W/m² | - |
| 1777544777 | 6.67° C | 99% | 1011.9 hPa | 0 mm | - | 0 W/m² | - |
| 1777544473 | 6.67° C | 99% | 1012.1 hPa | 0 mm | - | 0 W/m² | - |
| 1777544169 | 6.67° C | 99% | 1011.8 hPa | 0 mm | - | 0 W/m² | - |
| 1777543868 | 6.67° C | 99% | 1011.8 hPa | 0 mm | - | 0 W/m² | - |
| 1777543563 | 6.67° C | 99% | 1011.9 hPa | 0 mm | - | 0 W/m² | - |
| 1777543259 | 6.67° C | 99% | 1012.1 hPa | 0 mm | - | 0 W/m² | - |
| 1777542955 | 6.67° C | 99% | 1011.8 hPa | 0 mm | - | 0 W/m² | - |
| 1777542652 | 6.67° C | 99% | 1011.7 hPa | 0 mm | - | 0 W/m² | - |
| 1777542348 | 7.22° C | 99% | 1011.9 hPa | 0 mm | - | 0 W/m² | - |
* Rain latest hour (hover to see other rain measurements)
** Current wind speed in m/s (hover to see current wind gust speed)